User: anonymous   Login
Location: Unspecified
(0.0000°N, 0.0000°E)
Time: 22:58:23
(UTC+01:00)
Language:

Cosmos 1626 Rocket - Orbit

View from above orbital plane
View from above orbital plane
View from above satellite
View from above satellite

Ground track
Ground track

The orbit data is extracted from the following two-line orbital elements,

1 15495U 85009B   17081.58647187 +.00000102 +00000-0 +94549-5 0  9998
2 15495 082.5217 268.5819 0018667 254.8259 105.0892 14.83757389737123
Epoch (UTC): 22 March 2017 14:04:31
Eccentricity: 0.0018667
inclination: 82.5217°
perigee height: 604 km
apogee height: 630 km
right ascension of ascending node: 268.5819°
argument of perigee: 254.8259°
revolutions per day: 14.83757389
mean anomaly at epoch: 105.0892°
orbit number at epoch: 73712

The dashed part of the orbit path shows where the satellite is in the earth's shadow,  

DLR